LEMUR 2 VALHALLA

导读 | 星芒AI

LEMUR 2 VALHALLA 是由 Spire Global 开发的一颗小型卫星,属于其 LEMUR 系列地球观测卫星。该卫星主要用于气象监测,通过搭载的 GNSS 接收器收集全球大气数据,以提高天气预报的准确性。LEMUR 2 系列卫星体积小、成本低,适合批量部署,广泛应用于气候研究和灾害预警。VALHALLA 是该系列中的一个具体任务或卫星编号,旨在增强 Spire 的全球观测能力。

基本信息
目录编号:
58900
目录名称:
LEMUR 2 VALHALLA
国际标识:
2024-022B
轨道中心:
EARTH
卫星名称:
LEMUR 2 VALHALLA
卫星全名:
--
卫星状态:
在轨 (已飞行640 天)
发射日期:
2024-01-31 UTC
国别 :
美国 (US)
星等 :
--
轨道信息
数据来源 国际轨道数据 AOE轨道数据
星历时间 2025-11-01T04:07:21+0800
23小时前
查看轨道信息
2025-10-31T02:00:00+0800
2天前
查看轨道信息
半长轴 6849.714km 6849.914km
偏心率 0.0010257 0.0010146
轨道倾角 97.433° 97.434°
近地点辐角 206.181° 210.118°
升交点赤经 148.042° 146.951°
平近点角 153.891° 273.233°
近地点 464.553km 464.829km
远地点 478.605km 478.729km
周期 94.030分钟 94.035分钟
每日圈数 15.314193 15.313522
详细信息
使用方式:
暂无
2D轨道图
3D轨道图
轨道高度分析图
轨道倾角分析图
轨道综合分析图
查看轨道综合分析图